Flag for France Weather past 2 weeks in Mulhouse, France

Now
86 °F

Passing clouds.


Feels Like: 93 °F
Forecast: 75 / 97 °F
Wind: 5 mph from Southwest

Location: Bale-Mulhouse

Current Time: Jul 4, 2015 at 9:09:00 PM

Latest Report: Jul 4, 2015 at 9:00 PM


Visibility: N/A

Pressure: 30.09 "Hg

Humidity: 66%

Dew point: 73 °F

Location of MulhouseLocation

Historic Weather in Mulhouse — Graph

°F

Mulhouse temperature yesterday

Maximum temperature yesterday: 97 °F (at 4:00 PM)
Minimum temperature yesterday: 70 °F (at 4:30 AM)
Average temperature yesterday: 84 °F

Past Weeks' High & Low Weather Summary

 TemperatureHumidityPressure
High97 °F (Jul 2, 3:30 PM)100% (Jun 20, 8:00 AM)30.24 "Hg (Jun 20, 8:00 AM)
Low45 °F (Jun 24, 4:30 AM)26% (Jun 26, 3:00 PM)29.74 "Hg (Jun 22, 9:00 PM)
Average69 °F67%30.11 "Hg
* Reported Jun 19 8:00 PM — Jul 4 8:00 PM, Mulhouse, Weather by CustomWeather, © 2015

Note: Actual official high and low records may vary slightly from our data, if they occured in-between our weather recording intervals... More about our weather records

Advertising

Mulhouse weather history for previous 24 hours

 ConditionsComfort  
Time TempWeatherWind HumidityBarometerVisibility
8:00 PM
Sat, Jul 4
91 °FPassing clouds.5 mph52%30.09 "HgN/A
7:30 PM93 °FScattered clouds.5 mph47%30.09 "HgN/A
7:00 PM95 °FPassing clouds.5 mph39%30.09 "HgN/A
6:30 PM97 °FPassing clouds.3 mph37%30.09 "HgN/A
6:00 PM97 °FScattered clouds.5 mph34%30.12 "HgN/A
5:30 PM97 °FPassing clouds.3 mph34%30.12 "HgN/A
5:00 PM97 °FSunny.2 mph37%30.12 "Hg10 mi
4:30 PM97 °FPassing clouds.3 mph34%30.12 "HgN/A
4:00 PM95 °FPassing clouds.5 mph34%30.12 "HgN/A
3:30 PM95 °FPassing clouds.6 mph34%30.12 "HgN/A
3:00 PM95 °FPassing clouds.3 mph34%30.15 "HgN/A
2:30 PM95 °FPassing clouds.5 mph34%30.15 "HgN/A
2:00 PM93 °FPassing clouds.7 mph34%30.15 "HgN/A
1:30 PM93 °FPassing clouds.5 mph36%30.15 "HgN/A
1:00 PM91 °FPassing clouds.5 mph41%30.18 "HgN/A
12:30 PM90 °FSunny.3 mph43%30.18 "Hg10 mi
12:00 PM90 °FSunny.3 mph43%30.18 "Hg10 mi
11:30 AM88 °FSunny.2 mph49%30.18 "Hg10 mi
11:00 AM88 °FSunny.2 mph43%30.18 "Hg10 mi
10:30 AM86 °FSunny.3 mph49%30.18 "Hg10 mi
10:00 AM84 °FSunny.3 mph48%30.18 "Hg10 mi
9:30 AM82 °FPassing clouds.5 mph55%30.18 "HgN/A
9:00 AM81 °FSunny.3 mph62%30.18 "Hg10 mi
8:30 AM79 °FPassing clouds.5 mph61%30.18 "HgN/A
8:00 AM77 °FPassing clouds.6 mph65%30.18 "HgN/A
7:30 AM75 °FPassing clouds.6 mph74%30.18 "HgN/A
7:00 AM72 °FSunny.6 mph78%30.15 "Hg10 mi
6:30 AM72 °FClear.7 mph78%30.15 "Hg10 mi
6:00 AM70 °FClear.6 mph83%30.15 "Hg10 mi
5:30 AM70 °FPassing clouds.6 mph83%30.15 "HgN/A
5:00 AM72 °FPassing clouds.5 mph83%30.15 "HgN/A
4:30 AM70 °FClear.5 mph88%30.15 "Hg10 mi
4:00 AM70 °FPassing clouds.3 mph83%30.15 "HgN/A
3:30 AM70 °FClear.2 mph83%30.15 "Hg10 mi
3:00 AM70 °FClear.No wind88%30.15 "Hg10 mi
2:30 AM68 °FClear.3 mph94%30.15 "Hg10 mi
2:00 AM70 °FClear.2 mph88%30.15 "Hg10 mi
1:30 AM72 °FClear.2 mph83%30.15 "Hg10 mi
1:00 AM72 °FClear.3 mph83%30.15 "Hg10 mi
12:30 AM73 °FClear.3 mph83%30.15 "Hg10 mi
12:00 AM75 °FClear.3 mph78%30.15 "Hg10 mi
11:30 PM
Fri, Jul 3
81 °FClear.2 mph62%30.15 "Hg10 mi
11:00 PM82 °FClear.2 mph58%30.15 "Hg10 mi
10:30 PM84 °FPassing clouds.3 mph55%30.15 "HgN/A
10:00 PM86 °FPassing clouds.5 mph52%30.15 "HgN/A
9:30 PM88 °FSunny.7 mph46%30.15 "Hg10 mi
9:00 PM90 °FPassing clouds.6 mph43%30.15 "HgN/A
Weather by CustomWeather, © 2015

See weather overviewHow to use our weather pages